Regional Weather Roundup
Issued by NWS Goodland, KS

Home | Current Version | Previous Version | Graphics & Text | Print | Product List | Glossary On
Versions: 1 2 3 4 5 6 7 8 9 10 11 12 13 14 15 16 17 18 19 20 21 22 23 24 25 26 27 28 29 30 31 32 33 34 35 36 37 38 39 40 41 42 43 44 45 46 47 48 49 50
000
ASUS43 KGLD 302108
RWRGLD

GOODLAND FORECAST AREA HOURLY WEATHER ROUNDUP
NATIONAL WEATHER SERVICE GOODLAND KS
300 PM MDT TUE SEP 30 2014

...OFFICIAL OBSERVATIONS...

CITY           SKY/WX    TMP DP  RH WIND       PRES   REMARKS
GOODLAND KS    SUNNY     72  41  32 S7        29.77F
HILL CITY KS   SUNNY     77  54  44 S3        29.73F
IMPERIAL NEB   MOSUNNY   75  40  28 SW10      29.74F
MCCOOK NEB     SUNNY     78  39  24 SE6       29.73F
AKRON CO       PTSUNNY   68  37  32 W5        29.80F
BURLINGTON CO  SUNNY     72  33  24 NE3       29.79F
LIMON CO       SUNNY     68  33  27 NW13G18   29.83F
$$

...UNOFFICIAL OBSERVATIONS...

CITY           SKY/WX    TMP DP  RH WIND       PRES   REMARKS
COLBY KS       SUNNY     77  48  36 E8        29.75F
GOVE KS          N/A     78  32  18 MISG        N/A
NORTON KS      SUNNY     79  39  24 SE9       29.72
SHARON SPRINGS   N/A     75  45  33 CALM        N/A
WAKEENEY KS      N/A     79  53  40 MISG        N/A
KIT CARSON CO    N/A     72  40  31 MISG        N/A
YUMA CO          N/A     72  40  31 W9          N/A
$$



USA.gov is the U.S. government's official web portal to all federal, state and local government web resources and services.